EW4993 Weather Reports


time (UTC)temp
C
wind
direction
speed
KPH
gust
KPH
rain 1hr
cm
rain 24hr
cm
rain mn
cm
humidity
%
barometer
mb
20260901143008 28 257 0.0 6.4 0.00 0.00 0.00 66 991.8
20260901141504 27 232 0.0 6.4 0.00 0.00 0.00 64 992.0
20260901140104 27 186 1.6 8.0 0.00 0.00 0.00 61 992.0
20260901134603 26 155 0.0 0.0 0.00 0.00 0.00 59 991.9
20260901133105 25 153 0.0 4.8 0.00 0.00 0.00 56 992.0
20260901131555 25 194 0.0 0.0 0.00 0.00 0.00 53 991.9
20260901130034 23 194 0.0 0.0 0.00 0.00 0.00 51 991.6
20260901124535 23 194 0.0 0.0 0.00 0.00 0.00 48 991.5
20260901123013 23 196 0.0 0.0 0.00 0.00 0.00 43 991.3
20260901121512 23 196 0.0 0.0 0.00 0.00 0.00 49 991.1
20260901120051 23 196 0.0 0.0 0.00 0.00 0.00 49 991.0
20260901114552 23 196 0.0 0.0 0.00 0.00 0.00 45 990.8
20260901113040 23 196 0.0 0.0 0.00 0.00 0.00 48 990.9
20260901111536 23 196 0.0 0.0 0.00 0.00 0.00 53 991.1
20260901110034 23 196 0.0 0.0 0.00 0.00 0.00 53 990.9
20260901104539 23 196 0.0 0.0 0.00 0.00 0.00 56 990.8
20260901103036 24 196 0.0 0.0 0.00 0.00 0.00 59 990.7
20260901101527 25 196 0.0 0.0 0.00 0.00 0.00 61 990.5
20260901100023 25 196 0.0 0.0 0.00 0.00 0.00 62 990.6
20260901094524 25 196 0.0 0.0 0.00 0.00 0.00 62 990.7
20260901093004 25 196 0.0 0.0 0.00 0.00 0.00 64 990.8
20260901091503 25 196 0.0 3.2 0.00 0.00 0.00 65 990.7
20260901090052 26 196 1.6 8.0 0.00 0.00 0.00 65 990.6
20260901084540 26 198 4.8 8.0 0.00 0.00 0.00 66 990.7
20260901083027 26 199 3.2 8.0 0.00 0.00 0.00 66 990.6
20260901081528 26 209 3.2 8.0 0.00 0.00 0.00 66 990.6
20260901080026 26 214 3.2 11.3 0.00 0.00 0.00 67 990.6
20260901074525 27 226 6.4 11.3 0.00 0.00 0.00 67 990.6
20260901073029 27 217 6.4 11.3 0.00 0.00 0.00 67 990.6
20260901071524 27 227 8.0 11.3 0.00 0.00 0.00 67 990.8
20260901070029 27 214 6.4 12.9 0.00 0.00 0.00 67 990.8
20260901064525 27 227 8.0 14.5 0.00 0.00 0.00 67 990.7
20260901063006 27 202 9.7 16.1 0.00 0.00 0.00 67 990.6
20260901061505 28 196 11.3 17.7 0.00 0.00 0.00 67 990.4
20260901060047 28 192 12.9 19.3 0.00 0.00 0.00 67 990.4
20260901054547 28 186 12.9 22.5 0.00 0.00 0.00 67 990.3
20260901053029 28 194 11.3 16.1 0.00 0.00 0.00 67 990.2
20260901051528 28 190 9.7 17.7 0.00 0.00 0.00 66 990.1
20260901050010 28 196 9.7 16.1 0.00 0.00 0.00 65 989.9
20260901044510 29 199 12.9 17.7 0.00 0.00 0.00 64 989.8
20260901043059 29 191 12.9 19.3 0.00 0.00 0.00 63 989.8
20260901041559 30 200 14.5 20.9 0.00 0.00 0.00 61 989.7
20260901040103 30 194 12.9 16.1 0.00 0.00 0.00 59 989.7
20260901034558 30 190 12.9 20.9 0.00 0.00 0.00 56 989.7
20260901033058 29 188 12.9 16.1 0.00 0.00 0.00 55 989.5
20260901031556 29 186 6.4 11.3 0.00 0.00 0.00 49 989.4
20260901030054 29 136 1.6 4.8 0.00 0.00 0.00 47 989.2
20260901024558 30 136 0.0 0.0 0.00 0.00 0.00 44 989.0
20260901023039 30 136 1.6 4.8 0.00 0.00 0.00 43 988.8
20260901021548 30 136 0.0 3.2 0.00 0.00 0.00 43 988.7
20260901020018 31 135 1.6 6.4 0.00 0.00 0.00 43 988.5
20260901014518 31 134 1.6 4.8 0.00 0.00 0.00 42 988.3
20260901013006 32 133 1.6 4.8 0.00 0.00 0.00 39 988.1
20260901011506 33 133 3.2 8.0 0.00 0.00 0.00 37 988.0
20260901010015 33 138 6.4 11.3 0.00 0.00 0.00 35 988.0
20260901004504 34 134 6.4 14.5 0.00 0.00 0.00 34 988.0
20260901003003 35 142 8.0 14.5 0.00 0.00 0.00 33 988.0
20260901001503 35 126 11.3 17.7 0.00 0.00 0.00 33 987.9
20260901000001 35 134 8.0 17.7 0.00 0.00 0.00 33 987.8
20260831234501 36 98 8.0 17.7 0.00 0.00 0.00 34 987.8
20260831233043 36 136 9.7 19.3 0.00 0.00 0.00 35 987.9
20260831231548 35 144 4.8 16.1 0.00 0.00 0.00 35 987.9
20260831230028 35 140 12.9 24.1 0.00 0.00 0.00 35 987.9
20260831224525 36 141 9.7 22.5 0.00 0.00 0.00 35 988.0
20260831223015 37 130 11.3 24.1 0.00 0.00 0.00 35 988.0
20260831221511 36 209 8.0 27.4 0.00 0.00 0.00 35 988.2
20260831220047 36 119 8.0 17.7 0.00 0.00 0.00 35 988.2
20260831214546 36 183 11.3 17.7 0.00 0.00 0.00 36 988.4
20260831213040 36 202 14.5 20.9 0.00 0.00 0.00 36 988.5
20260831211532 36 197 9.7 17.7 0.00 0.00 0.00 34 988.8
20260831210029 36 178 14.5 22.5 0.00 0.00 0.00 37 988.9
20260831204530 35 222 4.8 14.5 0.00 0.00 0.00 39 989.2
20260831203026 35 142 11.3 19.3 0.00 0.00 0.00 37 989.5
20260831201534 36 195 14.5 27.4 0.00 0.00 0.00 37 989.8
20260831200022 36 137 12.9 22.5 0.00 0.00 0.00 36 989.9
20260831194519 35 264 9.7 24.1 0.00 0.00 0.00 40 990.0
20260831193100 35 202 11.3 30.6 0.00 0.00 0.00 42 990.2
20260831191602 35 155 14.5 24.1 0.00 0.00 0.00 41 990.4
20260831190042 35 160 16.1 29.0 0.00 0.00 0.00 43 990.7
20260831184543 35 190 8.0 25.7 0.00 0.00 0.00 43 990.9
20260831183020 35 163 8.0 22.5 0.00 0.00 0.00 44 991.0
20260831181517 33 145 0.0 16.1 0.00 0.00 0.00 49 991.1
20260831180054 33 192 9.7 16.1 0.00 0.00 0.00 50 991.3
20260831174555 33 167 9.7 19.3 0.00 0.00 0.00 50 991.7
20260831173034 32 152 9.7 22.5 0.00 0.00 0.00 53 991.8
20260831171536 32 142 9.7 19.3 0.00 0.00 0.00 56 991.9
20260831170015 32 188 8.0 22.5 0.00 0.00 0.00 54 992.1
20260831164511 32 169 12.9 22.5 0.00 0.00 0.00 58 992.1
20260831163053 31 221 9.7 17.7 0.00 0.00 0.00 60 992.0
20260831161552 31 175 8.0 19.3 0.00 0.00 0.00 59 992.1
20260831160049 31 236 9.7 22.5 0.00 0.00 0.00 63 992.0
20260831154552 30 197 12.9 20.9 0.00 0.00 0.00 63 991.9
20260831153044 30 223 12.9 16.1 0.00 0.00 0.00 66 991.9
20260831151539 29 256 9.7 16.1 0.00 0.00 0.00 66 991.8
20260831150036 28 227 8.0 14.5 0.00 0.00 0.00 66 991.7
20260831144539 28 201 8.0 16.1 0.00 0.00 0.00 64 991.7